Location: Banksville Park
(38.5557°N, 75.1182°W)
Time: 19:02:41
(UTC+00:00)

SAR-Lupe-1 - Pass Details

Date: 23 January 2021
Orbit: 482 x 484 km, 98.2° (Epoch: 05 March)

Event Time Altitude Azimuth Distance (km) Brightness Sun altitude
Exits shadow 23:44:33 10° 7° (N) 1,642 6.6 -17.9°
Maximum altitude 23:48:03 67° 285° (WNW) 526 4.3 -18.6°
Drops below altitude 10° 23:51:35 10° 202° (SSW) 1,655 7.2 -19.3°
Sets 23:53:38 0° 200° (SSW) 2,530 8.1 -19.7°
